Overview Statistics Trail Chart Weather Telemetry Raw packets
 

This is the latest recevied weather packets stored in our database for station/object WI0K. If no packets are shown the sender has not sent any weather packets the latest 10 day(s).

<< 85 86 87 88 89 90 91 >>
Time Temp. Humidity Pressure Rain* Wind** Luminosity Snow
1788045877 27.78° C 32% 1017.6 hPa 0 mm - 49 W/m² -
1788045576 27.78° C 34% 1017.7 hPa 0 mm - 46 W/m² -
1788045276 27.78° C 32% 1017.6 hPa 0 mm - 33 W/m² -
1788044975 27.78° C 31% 1017.5 hPa 0 mm - 36 W/m² -
1788044674 27.78° C 32% 1017.4 hPa 0 mm - 39 W/m² -
1788044373 28.33° C 32% 1017.4 hPa 0 mm - 48 W/m² -
1788044072 28.33° C 32% 1017.4 hPa 0 mm - 81 W/m² -
1788043771 28.33° C 32% 1017.2 hPa 0 mm - 139 W/m² -
1788043470 28.33° C 34% 1017.2 hPa 0 mm - 172 W/m² -
1788043170 28.33° C 33% 1017.2 hPa 0 mm - 163 W/m² -
1788042869 28.33° C 32% 1017.4 hPa 0 mm - 144 W/m² -
1788042568 28.33° C 33% 1017.5 hPa 0 mm - 149 W/m² -
1788042267 28.89° C 32% 1017.6 hPa 0 mm - 149 W/m² -
1788041966 29.44° C 30% 1017.6 hPa 0 mm - 100 W/m² -
1788041665 30° C 29% 1017.6 hPa 0 mm - 106 W/m² -
1788041365 30.56° C 29% 1017.1 hPa 0 mm - 180 W/m² -
1788041064 31.11° C 27% 1016.9 hPa 0 mm - 240 W/m² -
1788040763 31.11° C 27% 1016.8 hPa 0 mm - 448 W/m² -
1788040462 31.11° C 25% 1016.9 hPa 0 mm - 501 W/m² -
1788040162 31.11° C 24% 830.1 hPa 0 mm - 302 W/m² -
1788039861 31.11° C 25% 1016.8 hPa 0 mm - 286 W/m² -
1788039560 31.67° C 25% 1016.8 hPa 0 mm - 267 W/m² -
1788039259 31.67° C 25% 1016.8 hPa 0 mm - 377 W/m² -
1788038958 31.67° C 25% 1016.9 hPa 0 mm - 425 W/m² -
1788038657 31.67° C 25% 1016.9 hPa 0 mm - 841 W/m² -

* Rain latest hour (hover to see other rain measurements)
** Current wind speed in m/s (hover to see current wind gust speed)